TimeCST,TemperatureF,Dew PointF,Humidity,Sea Level PressureIn,VisibilityMPH,Wind Direction,Wind SpeedMPH,Gust SpeedMPH,PrecipitationIn,Events,Conditions,WindDirDegrees,DateUTC
12:35 AM,44.6,39.2,81,30.12,10.0,Calm,Calm,-,N/A,,Clear,0,2013-02-07 06:35:00
12:55 AM,44.6,39.2,81,30.12,10.0,Calm,Calm,-,N/A,,Clear,0,2013-02-07 06:55:00
1:15 AM,44.6,39.2,81,30.13,10.0,Calm,Calm,-,N/A,,Mostly Cloudy,0,2013-02-07 07:15:00
1:35 AM,44.6,39.2,81,30.12,10.0,Calm,Calm,-,N/A,,Overcast,0,2013-02-07 07:35:00
1:55 AM,44.6,39.2,81,30.12,10.0,Calm,Calm,-,N/A,,Overcast,0,2013-02-07 07:55:00
2:15 AM,44.6,39.2,81,30.12,10.0,Calm,Calm,-,N/A,,Mostly Cloudy,0,2013-02-07 08:15:00
2:35 AM,44.6,39.2,81,30.11,10.0,Calm,Calm,-,N/A,,Partly Cloudy,0,2013-02-07 08:35:00
2:55 AM,44.6,39.2,81,30.09,10.0,North,6.9,-,N/A,,Mostly Cloudy,350,2013-02-07 08:55:00
3:15 AM,44.6,41.0,87,30.09,8.0,Calm,Calm,-,N/A,,Mostly Cloudy,0,2013-02-07 09:15:00
3:35 AM,44.6,41.0,87,30.09,10.0,NE,5.8,-,0.02,,Overcast,40,2013-02-07 09:35:00
3:55 AM,44.6,42.8,93,30.10,9.0,Calm,Calm,-,0.08,,Overcast,0,2013-02-07 09:55:00
4:15 AM,44.6,42.8,93,30.12,9.0,Calm,Calm,-,0.01,,Overcast,0,2013-02-07 10:15:00
4:35 AM,44.6,42.8,93,30.12,10.0,Calm,Calm,-,0.02,,Overcast,0,2013-02-07 10:35:00
4:55 AM,44.6,42.8,93,30.12,8.0,South,3.5,-,0.03,,Mostly Cloudy,190,2013-02-07 10:55:00
5:15 AM,44.6,42.8,93,30.11,9.0,Calm,Calm,-,0.01,,Partly Cloudy,0,2013-02-07 11:15:00
5:35 AM,46.4,42.8,87,30.10,7.0,ENE,4.6,-,0.02,,Clear,60,2013-02-07 11:35:00
5:55 AM,46.4,42.8,87,30.10,7.0,NNE,5.8,-,0.03,,Clear,30,2013-02-07 11:55:00
6:15 AM,46.4,44.6,93,30.08,6.0,ENE,6.9,-,N/A,,Scattered Clouds,70,2013-02-07 12:15:00
6:35 AM,46.4,42.8,87,30.08,10.0,ENE,9.2,-,N/A,,Mostly Cloudy,60,2013-02-07 12:35:00
6:55 AM,46.4,42.8,87,30.09,10.0,ENE,10.4,-,N/A,,Overcast,60,2013-02-07 12:55:00
7:15 AM,46.4,42.8,87,30.08,10.0,ENE,8.1,-,N/A,,Overcast,70,2013-02-07 13:15:00
7:35 AM,46.4,42.8,87,30.07,10.0,ENE,6.9,-,N/A,,Overcast,70,2013-02-07 13:35:00
7:55 AM,46.4,42.8,87,30.06,10.0,East,9.2,-,N/A,,Overcast,80,2013-02-07 13:55:00
8:15 AM,46.4,42.8,87,30.06,10.0,ENE,9.2,-,N/A,,Overcast,60,2013-02-07 14:15:00
8:35 AM,46.4,42.8,87,30.07,10.0,ENE,9.2,-,N/A,,Overcast,60,2013-02-07 14:35:00
8:55 AM,46.4,41.0,81,30.05,10.0,ENE,10.4,-,N/A,,Overcast,60,2013-02-07 14:55:00
9:15 AM,46.4,42.8,87,30.04,10.0,ENE,10.4,-,N/A,,Overcast,60,2013-02-07 15:15:00
9:35 AM,46.4,42.8,87,30.04,10.0,ENE,11.5,-,N/A,,Overcast,70,2013-02-07 15:35:00
9:55 AM,46.4,42.8,87,30.04,10.0,ENE,6.9,-,N/A,,Overcast,60,2013-02-07 15:55:00
10:15 AM,48.2,42.8,82,30.05,10.0,ENE,8.1,-,N/A,,Overcast,70,2013-02-07 16:15:00
10:35 AM,48.2,42.8,82,30.04,10.0,ENE,9.2,-,N/A,,Overcast,60,2013-02-07 16:35:00
10:55 AM,48.2,42.8,82,30.03,10.0,ENE,10.4,-,N/A,,Overcast,70,2013-02-07 16:55:00
11:15 AM,48.2,42.8,82,30.03,10.0,ENE,9.2,-,N/A,,Overcast,70,2013-02-07 17:15:00
11:35 AM,48.2,42.8,82,30.02,10.0,ENE,9.2,-,N/A,,Overcast,70,2013-02-07 17:35:00
11:55 AM,48.2,42.8,82,30.01,6.0,ENE,8.1,-,N/A,,Overcast,70,2013-02-07 17:55:00
12:15 PM,48.2,42.8,82,30.00,9.0,ENE,9.2,-,N/A,,Overcast,60,2013-02-07 18:15:00
12:35 PM,48.2,44.6,87,29.99,8.0,NE,9.2,-,N/A,,Overcast,50,2013-02-07 18:35:00
12:55 PM,48.2,44.6,87,29.99,6.0,ENE,10.4,-,0.01,,Overcast,70,2013-02-07 18:55:00
1:15 PM,48.2,44.6,87,29.98,6.0,ENE,9.2,-,0.01,,Overcast,70,2013-02-07 19:15:00
1:35 PM,48.2,44.6,87,29.97,5.0,ENE,10.4,-,0.02,,Overcast,60,2013-02-07 19:35:00
1:55 PM,48.2,44.6,87,29.96,5.0,ENE,9.2,-,0.02,,Overcast,60,2013-02-07 19:55:00
2:16 PM,48.2,44.6,87,29.95,5.0,NE,11.5,-,0.01,,Overcast,50,2013-02-07 20:16:00
2:35 PM,48.2,44.6,87,29.95,7.0,NE,12.7,-,0.02,,Overcast,50,2013-02-07 20:35:00
3:15 PM,48.2,46.4,93,29.94,5.0,NE,10.4,-,N/A,,Overcast,50,2013-02-07 21:15:00
3:35 PM,48.2,46.4,93,29.94,9.0,NE,9.2,-,N/A,,Overcast,50,2013-02-07 21:35:00
3:55 PM,48.2,44.6,87,29.95,10.0,ENE,10.4,-,N/A,,Overcast,60,2013-02-07 21:55:00
4:15 PM,48.2,44.6,87,29.95,10.0,ENE,8.1,-,N/A,,Overcast,60,2013-02-07 22:15:00
4:35 PM,48.2,44.6,87,29.95,10.0,ENE,9.2,-,N/A,,Overcast,60,2013-02-07 22:35:00
4:55 PM,48.2,44.6,87,29.96,10.0,NE,9.2,-,N/A,,Overcast,50,2013-02-07 22:55:00
5:35 PM,48.2,44.6,87,29.96,10.0,ENE,10.4,-,N/A,,Overcast,60,2013-02-07 23:35:00
5:55 PM,48.2,44.6,87,29.95,7.0,NE,11.5,-,N/A,,Overcast,50,2013-02-07 23:55:00
6:15 PM,48.2,44.6,87,29.96,7.0,ENE,9.2,-,N/A,,Overcast,60,2013-02-08 00:15:00
6:35 PM,48.2,44.6,87,29.96,8.0,ENE,8.1,-,N/A,,Overcast,70,2013-02-08 00:35:00
6:55 PM,48.2,44.6,87,29.96,10.0,ENE,9.2,-,N/A,,Overcast,60,2013-02-08 00:55:00
7:15 PM,48.2,44.6,87,29.96,9.0,NE,8.1,-,N/A,,Overcast,50,2013-02-08 01:15:00
7:35 PM,48.2,44.6,87,29.97,7.0,ENE,9.2,-,N/A,,Overcast,60,2013-02-08 01:35:00
7:55 PM,48.2,44.6,87,29.97,7.0,ENE,6.9,-,N/A,,Overcast,60,2013-02-08 01:55:00
8:15 PM,48.2,44.6,87,29.98,5.0,NE,4.6,-,N/A,,Overcast,50,2013-02-08 02:15:00
8:35 PM,46.4,44.6,93,29.98,5.0,ENE,5.8,-,N/A,,Overcast,60,2013-02-08 02:35:00
8:55 PM,48.2,44.6,87,29.99,5.0,NE,3.5,-,N/A,,Overcast,50,2013-02-08 02:55:00
9:15 PM,48.2,44.6,87,29.98,6.0,NE,4.6,-,N/A,,Overcast,50,2013-02-08 03:15:00
9:35 PM,48.2,44.6,87,29.98,6.0,ENE,4.6,-,N/A,,Overcast,70,2013-02-08 03:35:00
9:55 PM,46.4,44.6,93,29.97,6.0,East,6.9,-,N/A,,Overcast,90,2013-02-08 03:55:00
10:15 PM,46.4,44.6,93,29.96,7.0,East,6.9,-,N/A,,Overcast,90,2013-02-08 04:15:00
10:35 PM,48.2,44.6,87,29.97,9.0,East,5.8,-,N/A,,Overcast,80,2013-02-08 04:35:00
10:55 PM,48.2,44.6,87,29.98,10.0,Calm,Calm,-,N/A,,Overcast,0,2013-02-08 04:55:00
11:15 PM,46.4,44.6,93,29.98,8.0,Calm,Calm,-,N/A,,Overcast,0,2013-02-08 05:15:00
11:35 PM,46.4,44.6,93,29.99,5.0,Calm,Calm,-,N/A,,Overcast,0,2013-02-08 05:35:00
11:55 PM,46.4,44.6,93,29.98,5.0,Calm,Calm,-,N/A,,Overcast,0,2013-02-08 05:55:00